Location: Winthrop
(48.4780°N, 120.1850°W)
Time: 01:29:44
(UTC-07:00)

Transit 2A - Pass Details

Date: 15 June 2024
Orbit: 591 x 960 km, 66.7° (Epoch: 23 July)

Event Time Altitude Azimuth Distance (km) Brightness Sun altitude
Rises 02:37:50 0° 323° (NW) 3,489 9.8 -15.0°
Reaches altitude 10° 02:40:17 10° 321° (NW) 2,589 9.1 -14.8°
Maximum altitude 02:46:20 69° 240° (WSW) 1,009 6.4 -14.4°
Drops below altitude 10° 02:52:37 10° 158° (SSE) 2,686 8.4 -14.0°
Enters shadow 02:54:07 - 157° (SSE) 3,231 8.8 -13.9°
